Location: Izdebno
(52.6670°N, 16.2170°E)
Time: 10:40:26
(UTC+01:00)

Transit 2A - Pass Details

Date: 03 February 2023
Orbit: 591 x 964 km, 66.7° (Epoch: 21 March)

Event Time Altitude Azimuth Distance (km) Brightness Sun altitude
Rises 15:43:15 0° 158° (SSE) 3,006 9.3 6.9°
Reaches altitude 10° 15:46:35 10° 132° (SE) 2,173 8.3 6.5°
Maximum altitude 15:49:00 14° 103° (ESE) 1,988 7.8 6.2°
Drops below altitude 10° 15:51:32 10° 73° (ENE) 2,301 7.9 5.9°
Sets 15:55:15 0° 49° (NE) 3,328 8.6 5.4°
